Portada
METAR-TAF:

METAR-TAF

Aeropuertos :

Tafraoui, Argelia

Base aérea

latitud: 35-32-33N, longitud: 000-31-56W, altitud: 112 m

Observación

El informe se hizo hace 35 minutos, a las 04:00 UTC
Viento 10 kt del oeste-suroeste
Temperatura 23°C
Humedad 57%
Presión 1012 hPa
Visibilidad 10 km o más
Nubes dispersas a una altura de 2600 ft

METAR: DAOL 210400Z 24010KT 9999 SCT026 23/14 Q1012

Hora: 05:35 (04:35 UTC)


TAF: falta

Observaciones y pronósticos meteorológicos de más de 4000 aeropuertos (mensajes METAR y TAF).

Los puntos amarillos y rojos representan las estaciones disponibles.

Ponga el ratón en el punto deseado para ver el nombre de la estación.

Haga clic para ver las observaciones y los pronósticos meteorológicos.

Para cambiar el mapa : haga clic en los botones verdes con una cruz de color negro para hacer un zoom, en el botón verde con un guión para alejar o en las flechas verdes para mapas adyacentes.


METAR-TAF: